Regional Weather Roundup
Issued by NWS

Home | Current Version | Previous Version | Text Only | Print | Product List | Glossary On
Versions: 1 2 3 4 5 6 7 8 9 10 11 12 13 14 15 16 17 18 19 20 21 22 23 24 25 26 27 28 29 30 31 32 33 34 35 36 37 38 39 40 41 42 43 44 45 46 47 48 49 50
000
ASUS43 KMKX 290924
RWRWI

WISCONSIN REGIONAL WEATHER ROUNDUP
NATIONAL WEATHER SERVICE MILWAUKEE/SULLIVAN WI
400 AM CDT FRI MAY 29 2015

NOTE: "FAIR" INDICATES FEW OR NO CLOUDS BELOW 12,000 FEET WITH NO
SIGNIFICANT WEATHER AND/OR OBSTRUCTIONS TO VISIBILITY.

WIZ001-002-006>008-014>016-023>028-291000-
NORTHWEST WISCONSIN

CITY           SKY/WX    TMP DP  RH WIND       PRES   REMARKS
SUPERIOR ARPT  CLOUDY    42  41  97 CALM      29.90F
ASHLAND        MOCLDY    55  51  86 S7        29.90S
HAYWARD        LGT RAIN  65  55  70 S12       29.92R
SIREN          CLOUDY    67  56  67 S8        29.89F
CUMBERLAND     LGT RAIN  61  55  82 S9        29.92S
RICE LAKE      CLOUDY    63  57  83 SE8       29.94S
CHETEK         CLOUDY    62  59  90 SE9G16    29.93F
LADYSMITH      DRIZZLE   61  57  87 S6        29.97F
EAU CLAIRE     CLOUDY    63  59  87 SE6       29.92F
MENOMONIE      CLOUDY    64  59  86 CALM      29.92F
NEW RICHMOND   CLOUDY    64  57  77 S9        29.90F
OSCEOLA        CLOUDY    65  58  77 SE7       29.92F
$$

WIZ003>005-009-010-017-018-291000-
NORTH CENTRAL WISCONSIN

CITY           SKY/WX    TMP DP  RH WIND       PRES   REMARKS
MANITOWISH WTR CLOUDY    63  55  75 S9        29.96S
ARBOR VITAE    CLOUDY    63  55  73 S9G18     29.98S
WOODRUFF       CLOUDY    63  55  73 S9G18     29.98S
RHINELANDER    CLOUDY    65  53  65 S9        29.99F
EAGLE RIVER    CLOUDY    63  52  67 S8        29.97F
LAND O LAKES   CLOUDY    64  53  67 S8        29.97F
PHILLIPS       CLOUDY    63  54  73 S7        29.96F
TOMAHAWK       CLOUDY    59  54  83 CALM      29.99F
MEDFORD        DRIZZLE   62  56  78 S5        29.98F
MERRILL        CLOUDY    62  56  82 CALM      29.99F
$$

WIZ029-030-035-036-043>047-291000-
CENTRAL WISCONSIN

CITY           SKY/WX    TMP DP  RH WIND       PRES   REMARKS
WAUSAU         CLOUDY    64  55  72 CALM      29.98F
MOSINEE        CLOUDY    63  55  77 S6        30.00F
MARSHFIELD     LGT RAIN  63  57  81 S6        29.99S
STEVENS POINT  LGT RAIN  64  54  68 S8        30.00F
WAUPACA        CLOUDY    63  58  85 CALM      30.00F
WAUTOMA        CLOUDY    63  59  87 CALM      30.02R
WISC RAPIDS    LGT RAIN  66  55  67 S13       30.02R
CAMP DOUGLAS   CLOUDY    63  63 100 SE5       29.98F
$$

WIZ011>013-019>022-031-037>040-048>050-291000-
NORTHEAST WISCONSIN

CITY           SKY/WX    TMP DP  RH WIND       PRES   REMARKS
ANTIGO         CLOUDY    59  55  87 S8        30.01F
SHAWANO        CLOUDY    64  55  73 CALM      30.00F
OCONTO         CLOUDY    65  57  73 S7        30.01F
STURGEON BAY   CLOUDY    61  52  72 S15       30.05F
GREEN BAY      CLOUDY    68  56  65 S9        30.01F
MANITOWOC      CLOUDY    59  54  83 S8        30.04F
APPLETON       CLOUDY    66  54  63 SE12      30.01F
CLINTONVILLE   CLOUDY    63  54  72 CALM      30.00F
OSHKOSH        CLOUDY    65  56  72 S7        30.00F
$$

WIZ032>034-041-042-053>061-291000-
SOUTHWEST WISCONSIN

CITY           SKY/WX    TMP DP  RH WIND       PRES   REMARKS
LA CROSSE      CLOUDY    65  61  87 SE5       29.94F
SPARTA         DRIZZLE   62  59  92 CALM      29.98F
VIROQUA        CLOUDY    61  60  94 SE7       29.98F
BOSCOBEL       LGT RAIN  63  60  90 NE3       29.97F
PRAIRIE DU CHI LGT RAIN  64  60  87 E3        29.96F
PLATTEVILLE    CLOUDY    63  61  94 E6        30.00S
$$

WIZ056-057-062-063-064-067-068-291000-
SOUTH CENTRAL WISCONSIN

CITY           SKY/WX    TMP DP  RH WIND       PRES   REMARKS
REEDSBURG      LGT RAIN  61  59  94 E3        30.00F
BARABOO/DELLS  RAIN      62  57  84 S3        30.01F
LONE ROCK      LGT RAIN  62  59  90 E3        29.99F
MINERAL POINT  RAIN      61  59  94 E5        30.00F
MADISON        CLOUDY    68  55  63 CALM      30.01S
MIDDLETON      CLOUDY    64  59  82 S3        30.02F
WATERTOWN      CLOUDY   N/A N/A N/A CALM      30.01F
MONROE         CLOUDY    64  57  77 S5        30.00F
JANESVILLE     CLOUDY    64  55  72 SE5       30.00F
$$

WIZ051-052-058>065-066-070>072-291000-
SOUTHEAST WISCONSIN

CITY           SKY/WX    TMP DP  RH WIND       PRES   REMARKS
MILWAUKEE      CLOUDY    60  53  77 SE3       30.02F
WAUKESHA       CLOUDY    63  54  72 S3        30.03F
MILWAUKEE/TIMM CLOUDY    63  52  67 SE3       30.03F
RACINE         CLOUDY    60  52  74 S6        30.04F
BURLINGTON     CLOUDY    56  54  92 CALM      30.02F
KENOSHA        CLOUDY    64  56  75 S5        30.03F
FOND DU LAC    CLOUDY    66  57  72 S8        30.00F
SHEBOYGAN      CLOUDY    60  53  77 S7        30.03F
WEST BEND      CLOUDY    63  54  72 S5        30.03F
JUNEAU         CLOUDY    64  56  75 SE8       30.02F
$$

LSZ147-162-291000-
LAKE SUPERIOR

STATION/POSITION TIME  TEMP    WIND        PRES    WAVE
                       AIR SEA DIR/SP/G            HT/PER
                 (UTC) (F)     (DEG/KT/KT) (MB)    (FT/S)
W MID LAKE BUOY  0850   38 37  140/  2/  4   N/A     1/ 4
DEVILS ISLAND    0900   40      40/  1/  2   N/A
PORT WING        0840   40      40/  1/  3   N/A
SAXON HARBOR     0830          200/  4/ 10   N/A
$$

LMZ867-665-643>646-291000-
LAKE MICHIGAN

STATION/POSITION TIME  TEMP    WIND        PRES    WAVE
                       AIR SEA DIR/SP/G            HT/PER
                 (UTC) (F)     (DEG/KT/KT) (MB)    (FT/S)
CHAMBERS ISLAND  0800   62     160/  5/ 11   N/A
N MID LAKE BUOY  0850   45 36  190/  6/  6   N/A     1/ 4
NORTHPORT PIER   0800   57     150/  7/  9   N/A
SISTER BAY       0818   58     150/ 11/ 15   N/A
ALGOMA LAKESHORE 0808           CALM  /  2   N/A
KEWAUNEE LAKESHO 0800   52     180/  5/  8   N/A
SHEBOYGAN LAKESH 0900   56     180/ 10/ 10   N/A
PORT WASHINGTON  0840   52      60/  1/  2   N/A
ATWATER BUOY     0900   54     150/  4/  6   N/A
MILWAUKEE LAKESH 0900   56     130/  8/ 10   N/A
S MID LAKE BUOY  0850   48 38  150/ 12/ 14   N/A     0
KENOSHA   LAKESH 0900   53     160/  7/  8   N/A
$$

TC  - TEMPERATURE IN CELSIUS
VSB - VISIBILITY IN STATUTE MILES
WCI - WIND CHILL INDEX
HX  - HEAT INDEX



USA.gov is the U.S. government's official web portal to all federal, state and local government web resources and services.